Rockwood, MI

11:22 PM EST on December 08, 2016 (GMT -0500)
Grosse Ile Municipal

Weather History for KONZ - July, 2013

Change the Weather History Date:

Saturday, July 20, 2013

  Actual Average (KDTW) Record (KDTW)
Temperature  
Mean Temperature 78 °F -  
Max Temperature 86 °F 83 °F 97 °F (1977)
Min Temperature 71 °F 63 °F 48 °F (1965)
Cooling Degree Days 14    
Growing Degree Days 28 (Base 50)    
Moisture  
Dew Point 69 °F    
Average Humidity 77    
Maximum Humidity 94    
Minimum Humidity 40    
Precipitation  
Precipitation 0.29 in - - ()
Sea Level Pressure  
Sea Level Pressure 29.82 in    
Wind  
Wind Speed 6 mph (SW)    
Max Wind Speed 18 mph    
Max Gust Speed 39 mph    
Visibility 10 miles    
Events Rain    
Averages and records for this station are not official NWS values.
T = Trace of Precipitation, MM = Missing Value Source: NWS Daily Summary

Daily Weather History Graph

Daily Weather History Graph

Search for Another Location

Airport or City:

Trip Planner

Search our weather history database for the weather conditions in past years. The results will help you decide how hot, cold, wet, or windy it might be!

Date:

Astronomy

Jul. 20, 2013 Rise Set
Actual Time 6:14 AM EDT 9:02 PM EDT
Civil Twilight 5:41 AM EDT 9:35 PM EDT
Nautical Twilight 5:00 AM EDT 10:17 PM EDT
Astronomical Twilight 4:12 AM EDT 11:04 PM EDT
Moon 7:05 PM EDT (7/20) 3:53 AM EDT (7/20)
Length of Visible Light 15h 54m
Length of Day
14h 48m
Waxing Gibbous, 93% of the Moon is Illuminated
Jul 20
Waxing Gibbous
Jul 22
Full
Jul 29
Last Quarter
Aug 6
New
Aug 14
First Quarter

Hourly Weather History & Observations

Time (EDT) Temp. Heat Index Dew Point Humidity Pressure Visibility Wind Dir Wind Speed Gust Speed Precip Events Conditions
12:14 AM 80.6 °F 85.4 °F 73.4 °F 79% 29.75 in 10.0 mi SSW 10.4 mph 17.3 mph N/A   Mostly Cloudy
12:34 AM 80.6 °F 85.4 °F 73.4 °F 79% 29.76 in 10.0 mi SW 12.7 mph 19.6 mph N/A   Mostly Cloudy
12:55 AM 80.6 °F 85.4 °F 73.4 °F 79% 29.75 in 10.0 mi SW 11.5 mph - N/A   Mostly Cloudy
1:14 AM 82.4 °F 88.2 °F 73.4 °F 74% 29.77 in 10.0 mi NW 13.8 mph 19.6 mph N/A   Mostly Cloudy
1:34 AM 73.4 °F - 66.2 °F 78% 29.79 in 5.0 mi WNW 18.4 mph 39.1 mph 0.08 in Rain Heavy Rain
1:54 AM 71.6 °F - 66.2 °F 83% 29.77 in 10.0 mi WSW 6.9 mph 18.4 mph 0.21 in Rain Light Rain
2:14 AM 71.6 °F - 66.2 °F 83% 29.77 in 10.0 mi WSW 9.2 mph 19.6 mph N/A Rain Light Rain
2:34 AM 71.6 °F - 66.2 °F 83% 29.77 in 10.0 mi WSW 6.9 mph - 0.01 in Rain Light Rain
2:54 AM 71.6 °F - 66.2 °F 83% 29.75 in 10.0 mi WSW 6.9 mph - 0.01 in Rain Light Rain
3:14 AM 71.6 °F - 68.0 °F 88% 29.75 in 10.0 mi SW 8.1 mph - 0.04 in Rain Heavy Rain
3:34 AM 71.6 °F - 68.0 °F 88% 29.75 in 10.0 mi West 8.1 mph - 0.05 in Rain Light Rain
3:54 AM 71.6 °F - 68.0 °F 88% 29.75 in 10.0 mi WSW 5.8 mph - 0.06 in Rain Light Rain
4:14 AM 71.6 °F - 68.0 °F 88% 29.75 in 10.0 mi Calm Calm - N/A Rain Light Rain
4:34 AM 71.6 °F - 68.0 °F 88% 29.75 in 10.0 mi Calm Calm - N/A   Scattered Clouds
4:54 AM 71.6 °F - 69.8 °F 94% 29.75 in 10.0 mi Calm Calm - N/A   Mostly Cloudy
5:14 AM 71.6 °F - 69.8 °F 94% 29.77 in 10.0 mi SSW 4.6 mph - N/A   Overcast
5:34 AM 71.6 °F - 69.8 °F 94% 29.76 in 10.0 mi SW 3.5 mph - N/A   Overcast
5:54 AM 71.6 °F - 69.8 °F 94% 29.75 in 4.0 mi WSW 3.5 mph - N/A   Overcast
6:14 AM 71.6 °F - 69.8 °F 94% 29.79 in 10.0 mi Calm Calm - N/A   Scattered Clouds
6:34 AM 71.6 °F - 69.8 °F 94% 29.79 in 10.0 mi Calm Calm - N/A   Scattered Clouds
6:54 AM 71.6 °F - 69.8 °F 94% 29.80 in 10.0 mi Calm Calm - N/A   Scattered Clouds
7:14 AM 71.6 °F - 69.8 °F 94% 29.81 in 10.0 mi SSW 3.5 mph - N/A   Scattered Clouds
7:34 AM 73.4 °F - 69.8 °F 88% 29.81 in 10.0 mi Calm Calm - N/A   Scattered Clouds
7:54 AM 73.4 °F - 69.8 °F 88% 29.82 in 10.0 mi Calm Calm - N/A   Mostly Cloudy
8:14 AM 73.4 °F - 69.8 °F 88% 29.82 in 10.0 mi Calm Calm - N/A   Overcast
8:34 AM 73.4 °F - 69.8 °F 88% 29.82 in 10.0 mi Calm Calm - N/A   Overcast
8:54 AM 73.4 °F - 69.8 °F 88% 29.83 in 10.0 mi Calm Calm - N/A   Overcast
9:14 AM 73.4 °F - 69.8 °F 88% 29.83 in 10.0 mi Calm Calm - N/A   Overcast
9:34 AM 75.2 °F - 69.8 °F 83% 29.84 in 10.0 mi NNW 3.5 mph - 0.01 in   Overcast
9:54 AM 73.4 °F - 69.8 °F 88% 29.84 in 10.0 mi NNE 5.8 mph - 0.01 in   Overcast
10:14 AM 73.4 °F - 69.8 °F 88% 29.84 in 10.0 mi North 3.5 mph - N/A   Overcast
10:34 AM 75.2 °F - 69.8 °F 83% 29.84 in 10.0 mi NE 3.5 mph - N/A   Overcast
10:54 AM 75.2 °F - 69.8 °F 83% 29.84 in 10.0 mi ENE 3.5 mph - N/A   Overcast
11:14 AM 77.0 °F - 71.6 °F 83% 29.84 in 10.0 mi Calm Calm - N/A   Scattered Clouds
11:34 AM 77.0 °F - 71.6 °F 83% 29.84 in 10.0 mi Calm Calm - N/A   Scattered Clouds
11:54 AM 78.8 °F - 71.6 °F 78% 29.84 in 10.0 mi Calm Calm - N/A   Mostly Cloudy
12:14 PM 80.6 °F 84.6 °F 71.6 °F 74% 29.84 in 10.0 mi Calm Calm - N/A   Scattered Clouds
12:34 PM 78.8 °F - 71.6 °F 78% 29.84 in 10.0 mi SSE 4.6 mph - N/A   Mostly Cloudy
12:54 PM 78.8 °F - 71.6 °F 78% 29.84 in 10.0 mi Calm Calm - N/A   Mostly Cloudy
1:14 PM 78.8 °F - 71.6 °F 78% 29.84 in 10.0 mi South 3.5 mph - N/A   Mostly Cloudy
1:35 PM 80.6 °F 84.6 °F 71.6 °F 74% 29.84 in 10.0 mi South 4.6 mph - N/A   Scattered Clouds
1:54 PM 80.6 °F 84.6 °F 71.6 °F 74% 29.84 in 10.0 mi South 5.8 mph - N/A   Scattered Clouds
2:14 PM 80.6 °F 84.6 °F 71.6 °F 74% 29.84 in 10.0 mi South 3.5 mph - N/A   Mostly Cloudy
2:34 PM 80.6 °F 85.4 °F 73.4 °F 79% 29.84 in 10.0 mi SSE 3.5 mph - N/A   Scattered Clouds
2:54 PM 82.4 °F 88.2 °F 73.4 °F 74% 29.83 in 10.0 mi South 4.6 mph - N/A   Clear
3:14 PM 82.4 °F 87.2 °F 71.6 °F 70% 29.82 in 10.0 mi West 4.6 mph - N/A   Scattered Clouds
3:34 PM 82.4 °F 87.2 °F 71.6 °F 70% 29.82 in 10.0 mi Calm Calm - N/A   Mostly Cloudy
3:54 PM 84.2 °F 85.6 °F 64.4 °F 51% 29.82 in 10.0 mi WNW 5.8 mph - N/A   Scattered Clouds
4:14 PM 86.0 °F 86.6 °F 62.6 °F 45% 29.82 in 10.0 mi NW 9.2 mph - N/A   Clear
4:34 PM 86.0 °F 86.1 °F 60.8 °F 43% 29.82 in 10.0 mi NW 8.1 mph - N/A   Clear
4:54 PM 86.0 °F 86.6 °F 62.6 °F 45% 29.83 in 10.0 mi WNW 6.9 mph - N/A   Clear
5:14 PM 86.0 °F 86.1 °F 60.8 °F 43% 29.83 in 10.0 mi West 6.9 mph - N/A   Clear
5:34 PM 86.0 °F 85.4 °F 59.0 °F 40% 29.83 in 10.0 mi WNW 8.1 mph - N/A   Clear
5:54 PM 86.0 °F 86.1 °F 60.8 °F 43% 29.83 in 10.0 mi WNW 6.9 mph - N/A   Clear
6:14 PM 84.2 °F 83.8 °F 59.0 °F 42% 29.83 in 10.0 mi WNW 8.1 mph - N/A   Clear
6:34 PM 86.0 °F 86.1 °F 60.8 °F 43% 29.83 in 10.0 mi NE 5.8 mph - N/A   Clear
6:54 PM 84.2 °F 86.6 °F 66.2 °F 55% 29.83 in 10.0 mi ESE 5.8 mph - N/A   Mostly Cloudy
7:14 PM 82.4 °F 88.2 °F 73.4 °F 74% 29.83 in 10.0 mi SE 6.9 mph - N/A   Overcast
7:34 PM 80.6 °F 84.6 °F 71.6 °F 74% 29.84 in 10.0 mi SE 5.8 mph - N/A   Overcast
7:54 PM 80.6 °F 84.6 °F 71.6 °F 74% 29.85 in 10.0 mi SE 3.5 mph - N/A   Overcast
8:14 PM 80.6 °F 84.6 °F 71.6 °F 74% 29.85 in 10.0 mi SE 5.8 mph - N/A   Mostly Cloudy
8:34 PM 78.8 °F - 71.6 °F 78% 29.85 in 10.0 mi SSE 8.1 mph - N/A   Scattered Clouds
8:54 PM 78.8 °F - 71.6 °F 78% 29.86 in 10.0 mi SSE 5.8 mph - N/A   Clear
9:14 PM 78.8 °F - 71.6 °F 78% 29.86 in 10.0 mi SSE 5.8 mph - N/A   Mostly Cloudy
9:34 PM 78.8 °F - 71.6 °F 78% 29.87 in 5.0 mi Calm Calm - N/A Rain Light Rain
9:54 PM 75.2 °F - 66.2 °F 73% 29.89 in 10.0 mi NE 11.5 mph 17.3 mph N/A   Overcast
10:14 PM 73.4 °F - 66.2 °F 78% 29.90 in 10.0 mi NE 8.1 mph - N/A   Mostly Cloudy
10:34 PM 71.6 °F - 66.2 °F 83% 29.91 in 10.0 mi East 3.5 mph - N/A   Scattered Clouds
10:54 PM 71.6 °F - 64.4 °F 78% 29.91 in 10.0 mi East 4.6 mph - N/A   Scattered Clouds
11:14 PM 71.6 °F - 66.2 °F 83% 29.91 in 10.0 mi Calm Calm - N/A   Scattered Clouds
11:34 PM 71.6 °F - 64.4 °F 78% 29.92 in 10.0 mi Calm Calm - N/A   Clear
11:54 PM 71.6 °F - 64.4 °F 78% 29.91 in 10.0 mi Calm Calm - N/A   Clear